Starlink 32862

operational
NORAD ID: 62864 Int'l Des: 2025-022 Owner: SPXS Country: US Constellation: starlink
LEOCIRCULAR

About Starlink 32862

Description loading...

Live Position

Loading 3D Globe...

Upcoming Passes

Altitude History

Altitude vs Time

uPlot chart will show altitude changes over time

Two-Line Element Set

1 62864U 25022L 26034.70464025 .00050244 00000-0 16929-2 0 9994
2 62864 53.1584 287.7036 0000997 112.2876 247.8231 15.30279721 56699
Epoch: Feb 3, 2026 • Age: 24 hours

Current Status

Altitude 474.6 km
Velocity 7.63 km/s
Sub-Earth Point 6.75°N, 65.53°E
Launch Date Feb 2, 2025
Age 1 years
Type internet

Technical Details

Classification Payload
Mass 730.00 kg
Dry Mass 700.00 kg
Total Mass 730.00 kg
Length 0.30 m
Diameter 4.10 m
Span 29.00 m
Shape Box + pan
Manufacturer SPXS
Bus Type Starlink V2M
Phase Status In Orbit
Owner/State SPXS/US

Large Constellations

Loading constellations...